Вернуться в каталог

STARLINK-33844

АктивенСвязьVLEO
NORAD 63768·PAYLOAD·🇺🇸 United States

Запущен Apr 29, 2025 с Cape Canaveral Space Force Station

Loading…

Ближайшие Пролёты (ближайшие 24 часа)

TLE

СвежийSource: CelesTrak SupGP

Эпоха: Sep 15, 2026, 03:26 UTC

1 63768C 25089T   26258.14354167 -.00023922  00000+0 -86625-3 0  2585
2 63768  43.0009  55.0467 0001414 270.0722 137.9237 15.27597615    16

Отслеживайте STARLINK-33844 в реальном времени с AllMySat

Download on the App Store